Regional Weather Roundup
Issued by NWS

Home | Current Version | Previous Version | Graphics & Text | Print | Product List | Glossary On
Versions: 1 2 3 4 5 6 7 8 9 10 11 12 13 14 15 16 17 18 19 20 21 22 23 24 25 26 27 28 29 30 31 32 33 34 35 36 37 38 39 40 41 42 43 44 45 46 47 48 49 50
000
ASUS43 KFSD 251802
RWRSD

WEATHER ROUNDUP FOR SOUTH DAKOTA
NATIONAL WEATHER SERVICE SIOUX FALLS SD
100 PM CDT MON MAY 25 2015

NOTE: "FAIR" INDICATES FEW OR NO CLOUDS BELOW 12,000 FEET WITH NO
SIGNIFICANT WEATHER AND/OR OBSTRUCTIONS TO VISIBILITY.


SDZ001>005-009-010-012>017-251900-
NORTHWEST AND NORTH CENTRAL SOUTH DAKOTA

CITY           SKY/WX    TMP DP  RH WIND       PRES   REMARKS
FAITH            N/A     56  53  90 NE12      29.84S
MOBRIDGE       LGT RAIN  61  58  90 E13       29.81S
$$

SDZ012>016-024>037-041>051-057-063-072>074-251900-
SOUTHWEST AND SOUTH CENTRAL SOUTH DAKOTA

CITY           SKY/WX    TMP DP  RH WIND       PRES   REMARKS
RAPID CTY ARPT PTSUNNY   62  53  72 N20       29.83R
PIERRE         CLOUDY    60  55  83 E9        29.78R
CUSTER         LGT RAIN  53  44  71 N9        29.88R
ELLSWORTH AFB  CLOUDY    59  53  80 N15       29.83
PHILIP         CLOUDY    61  55  81 NE13      29.80R
PINE RIDGE     CLOUDY    57  50  77 NE9       29.83S
WINNER         CLOUDY    61  55  81 NE8       29.78S
$$

SDZ004>011-016>023-039-040-251900-
NORTHEAST SOUTH DAKOTA

CITY           SKY/WX    TMP DP  RH WIND       PRES   REMARKS
ABERDEEN       CLOUDY    63  54  72 NE17      29.79S
WATERTOWN      CLOUDY    60  55  83 N13G21    29.75S
BROOKINGS      CLOUDY    63  55  77 W10       29.75F
$$

SDZ017-020-022-023-036>040-048>070-251900-
SOUTHEAST SOUTH DAKOTA

CITY           SKY/WX    TMP DP  RH WIND       PRES   REMARKS
SIOUX FALLS    PTSUNNY   66  58  75 SW7       29.74F
HURON          CLOUDY    61  56  83 N12       29.75F
CHAMBERLAIN    CLOUDY    63  55  77 CALM      29.77S
MITCHELL       CLOUDY    64  58  80 S3        29.76S
YANKTON        CLOUDY    66  61  82 SE6       29.73F
$$

ABBREVIATIONS USED IN REMARKS
   TC - TEMPERATURE IN CELSIUS
  WCI - WIND CHILL INDEX
   HX - HEAT INDEX
  VSB - VISIBILITY



USA.gov is the U.S. government's official web portal to all federal, state and local government web resources and services.